FW5345 Weather Reports


time (UTC)temp
F
wind
direction
speed
knots
gust
knots
rain 1hr
in
rain 24hr
in
rain mn
in
humidity
%
barometer
mb
20200531081522 48 341 1.7 0.0 0.00 0.10 0.00 76 1014.6
20200531080023 49 320 1.7 0.0 0.00 0.10 0.00 75 1014.6
20200531074523 49 276 0.9 0.0 0.00 0.10 0.00 74 1014.2
20200531073023 49 235 2.6 0.0 0.00 0.10 0.00 74 1014.2
20200531071517 49 258 2.6 0.0 0.00 0.10 0.00 75 1014.2
20200531070023 49 270 1.7 0.0 0.00 0.10 0.00 76 1014.2
20200531064523 49 260 0.9 0.0 0.00 0.10 0.00 76 1014.6
20200531063015 49 314 2.6 0.0 0.00 0.10 0.00 76 1014.6
20200531061514 50 231 1.7 0.0 0.00 0.10 0.00 76 1014.6
20200531060015 50 254 3.5 0.0 0.00 0.10 0.00 76 1014.6
20200531054515 50 255 2.6 0.0 0.00 0.10 0.00 76 1014.6
20200531053014 49 287 0.9 0.0 0.00 0.10 0.00 77 1014.6
20200531051528 49 303 1.7 0.0 0.00 0.10 0.00 77 1014.6
20200531050015 49 288 1.7 0.0 0.00 0.10 0.00 77 1014.2
20200531044515 49 246 1.7 0.0 0.00 0.10 0.00 77 1014.2
20200531043015 49 273 0.9 0.0 0.00 0.10 0.00 76 1014.2
20200531041514 49 252 2.6 0.0 0.00 0.10 0.00 75 1014.2
20200531040014 50 278 2.6 0.0 0.00 0.10 0.00 74 1014.2
20200531034513 50 316 3.5 0.0 0.00 0.10 0.00 71 1014.2
20200531033023 50 299 4.3 0.0 0.00 0.10 0.00 70 1013.5
20200531031514 50 289 5.2 0.0 0.00 0.10 0.00 74 1013.2
20200531030022 50 293 3.5 0.0 0.00 0.10 0.00 77 1013.5
20200531024523 50 301 4.3 0.0 0.00 0.10 0.00 79 1013.5
20200531023023 49 306 3.5 0.0 0.00 0.10 0.00 80 1013.5
20200531021523 49 320 4.3 0.0 0.00 0.10 0.00 79 1013.2
20200531020022 50 349 3.5 0.0 0.00 0.10 0.00 77 1013.2
20200531014523 50 312 3.5 0.0 0.00 0.10 0.00 76 1013.2
20200531013022 51 316 5.2 0.0 0.00 0.10 0.00 77 1012.8
20200531011522 51 327 4.3 0.0 0.00 0.10 0.00 80 1012.5
20200531010022 51 323 6.1 0.0 0.00 0.10 0.00 81 1012.1
20200531004522 51 274 3.5 0.0 0.00 0.10 0.00 82 1012.1
20200531003022 51 339 7.0 0.0 0.00 0.10 0.00 82 1012.1
20200531001523 51 316 3.5 0.0 0.00 0.10 0.00 82 1012.1
20200531000023 52 287 5.2 0.0 0.00 0.10 0.00 82 1011.4
20200530234522 52 348 3.5 0.0 0.10 0.10 0.00 83 1011.0
20200530233022 52 65 2.6 0.0 0.10 0.10 0.00 81 1010.7
20200530231522 51 142 6.1 0.0 0.10 0.10 0.00 84 1010.0
20200530230023 52 13 3.5 0.0 0.10 0.10 0.00 82 1010.7
20200530224522 54 50 3.5 0.0 0.00 0.00 0.00 73 1011.4
20200530223022 55 360 5.2 0.0 0.00 0.00 0.00 70 1011.0
20200530221522 56 62 2.6 0.0 0.00 0.00 0.00 69 1010.3
20200530220022 58 314 4.3 0.0 0.00 0.00 0.00 68 1008.9
20200530214522 59 301 2.6 0.0 0.00 0.00 0.00 66 1008.5
20200530213022 61 332 5.2 0.0 0.00 0.00 0.00 63 1008.2
20200530211522 63 10 4.3 0.0 0.00 0.00 0.00 61 1008.2
20200530210023 63 305 3.5 0.0 0.00 0.00 0.00 61 1007.8
20200530204522 64 286 6.1 0.0 0.00 0.00 0.00 59 1007.8
20200530203022 66 303 6.1 0.0 0.00 0.00 0.00 58 1007.5
20200530201524 68 313 7.8 0.0 0.00 0.00 0.00 58 1006.8
20200530200021 70 311 6.1 0.0 0.00 0.00 0.00 56 1006.4
20200530194523 72 285 5.2 0.0 0.00 0.00 0.00 55 1006.4
20200530193022 75 310 7.0 0.0 0.00 0.00 0.00 52 1006.1
20200530191523 77 277 3.5 0.0 0.00 0.00 0.00 51 1006.1
20200530190022 77 299 3.5 0.0 0.00 0.00 0.00 57 1005.7
20200530184523 77 2 1.7 0.0 0.00 0.00 0.00 57 1005.7
20200530183023 76 23 2.6 0.0 0.00 0.00 0.00 60 1005.7
20200530181522 74 20 0.9 0.0 0.00 0.00 0.00 62 1006.1
20200530180023 72 177 0.9 0.0 0.00 0.00 0.00 63 1006.4
20200530174522 70 119 0.9 0.0 0.00 0.00 0.00 65 1006.8
20200530173022 69 337 0.0 0.0 0.00 0.00 0.00 66 1006.8
20200530171522 69 319 0.9 0.0 0.00 0.00 0.00 68 1007.1
20200530170024 68 322 2.6 0.0 0.00 0.00 0.00 70 1007.1
20200530164522 68 327 2.6 0.0 0.00 0.00 0.00 68 1007.5
20200530163022 69 358 1.7 0.0 0.00 0.00 0.00 66 1007.5
20200530161523 68 97 0.9 0.0 0.00 0.00 0.00 66 1008.2
20200530160022 67 112 2.6 0.0 0.00 0.00 0.00 67 1008.2
20200530154522 66 126 1.7 0.0 0.00 0.00 0.00 68 1008.5
20200530153022 65 34 0.0 0.0 0.00 0.00 0.00 71 1008.5
20200530151523 63 5 1.7 0.0 0.00 0.00 0.00 75 1008.5
20200530150023 63 30 0.9 0.0 0.00 0.00 0.00 77 1008.5
20200530144523 63 48 3.5 0.0 0.00 0.00 0.00 80 1008.9
20200530143022 61 101 0.9 0.0 0.00 0.00 0.00 82 1008.9
20200530141523 61 24 2.6 0.0 0.00 0.00 0.00 84 1009.2
20200530140022 60 38 2.6 0.0 0.00 0.00 0.00 84 1009.2
20200530134523 60 350 1.7 0.0 0.00 0.00 0.00 84 1008.9
20200530133022 59 186 1.7 0.0 0.00 0.00 0.00 85 1008.2
20200530131523 58 138 0.0 0.0 0.00 0.00 0.00 85 1008.2
20200530130021 59 112 0.0 0.0 0.00 0.00 0.00 85 1008.5
20200530124523 59 121 1.7 0.0 0.00 0.00 0.00 84 1008.5
20200530123022 59 198 0.9 0.0 0.00 0.00 0.00 83 1008.5
20200530121522 59 153 0.9 0.0 0.00 0.00 0.00 82 1008.9
20200530120022 59 171 0.9 0.0 0.00 0.00 0.00 82 1008.9
20200530114522 59 195 1.7 0.0 0.00 0.00 0.00 83 1008.9
20200530113021 59 137 1.7 0.0 0.00 0.00 0.00 83 1008.9
20200530111522 59 157 1.7 0.0 0.00 0.00 0.00 82 1008.9
20200530110022 59 191 1.7 0.0 0.00 0.00 0.00 81 1008.5
20200530104522 60 133 0.9 0.0 0.00 0.00 0.00 80 1008.9
20200530103023 60 173 1.7 0.0 0.00 0.00 0.00 80 1008.9
20200530101514 60 123 2.6 0.0 0.00 0.00 0.00 79 1009.2
20200530093022 60 183 2.6 0.0 0.00 0.00 0.00 80 1009.6
20200530091522 61 127 1.7 0.0 0.00 0.00 0.00 77 1009.6
20200530090023 61 171 0.9 0.0 0.00 0.00 0.00 77 1010.0
20200530084514 62 164 1.7 0.0 0.00 0.00 0.00 77 1010.0
20200530083015 62 142 0.9 0.0 0.00 0.00 0.00 77 1010.3